Погода в Магдагачи

Погода в Магдагачи : погода сейчас, прогноз погоды и архив. Всё, что Вы хотите узнать о погоде в Магдагачи!

Хотите узнать прогноз погоды в Магдагачи? Тогда Вам сюда: Погода в Магдагачи

Поиск расширенной информации на нашем сайте:

Другие новости

Новости СМИ2

Главная страница сайта

Новости сайта

02.10.2013

Напоминаем, что на нашем новом сайте вы можете получить высокодетализированные прогнозы погоды по пунктам России, СНГ и мира (включающие важные для авиации метеовеличины, такие как направление и скорость ветра, видимость, явления погоды, количество и форма облачности, нижняя и верхняя граница облачности), а также ознакомиться с разнообразными материалами по авиационной метеорологии и подборкой полезных ссылок на эту тему.

Сайт Метеоцентр.Азия посвящён разработке технологий оптимизации авиаметеорологического обслуживания, включая проектирование и перспективное создание нескольких автоматизированных авиаметеорологических систем:
- система выпуска высокодетальных прогностических карт явлений погоды для нижнего воздушного пространства по России и ближнему зарубежью;
- система верификации прогнозов TAF (выпускаемых синоптиками официальных АМСГ РФ и ближнего зарубежья) и AUTOTAF (выпускаемых сайтом Метеоцентр.Азия) - выявление ошибок, онлайн-сопоставление с фактической погодой METAR, автоматическое внесение коррективов в прогнозы при резком отклонении фактической погоды от прогноза, подсчёт оправдываемости прогнозов по элементам и в целом;
- система обработки, анализа и отображения авиаметеорологической информации для применения провайдерами метеорологической информации.


Погода в Магдагачи - сегодня

Время (UTC), дата Ветер
(°,м/с) 
Видим.   Явления Облачность Т
(°С)
Тd
(°С)
f(%) Тe
(°С)
Pmin
(гПа)
dP
(гПа)
Po
(мм)
O2
(г/м3)
Тmin Tmax R s Состояние
почвы
15 13.01.17 320 (СЗ) 20000 м    6/0 верхняя 
[Ci fib]
-18.1 -22.2 70 -21  1028.8  2.7  735  319           
18 13.01.17 290 (З) 20000 м    6/0 верхняя 
[Ci fib]
-18.2 -22.3 70 -23  1032.1  3.1  737  320           
21 13.01.17 320 (СЗ) 20000 м    5/0 верхняя 
[Ci fib]
-18.5 -22.6 70 -24  1033.4  1.3  738  321           
00 14.01.17 320 (СЗ) 20000 м    ясно 
-20.2 -23.5 75 -23  1035.2  1.4  739  323  -20.5      17  равномерный
сухой снег
100% 
03 14.01.17 320 (СЗ) 20000 м    ясно 
-16.4 -23.4 55 -21  1035.4  0.9  740  319           
06 14.01.17 320 (СЗ) 20000 м    ясно 
-11.4 -19.8 50 -13  1034.1  -0.3  740  313           
09 14.01.17 320 (СЗ) 20000 м    ясно 
-13.8 -19.9 60 -16  1035  0.3  740  316           
12 14.01.17 320 (СЗ) 20000 м    ясно 
-13.8 -20.9 55 -16  1034.7  -0.3  740  316    -11       
15 14.01.17 320 (СЗ) 20000 м    6/0 верхняя 
[Ci fib]
-14.5 -21.6 55 -17  1034.7  740  316           
18 14.01.17 тихо ()   20000 м    6/0 верхняя 
[Ci fib]
-19.4 -23.5 70 -19  1035.4  -0.2  740  323           
21 14.01.17 270 (З) 20000 м    8/0 верхняя 
[Ci fib]
-20.2 -23.5 75 -23  1035.8  0.2  740  324           
00 15.01.17 270 (З) 20000 м    10/0 средняя, верхняя 
[Ac trans|Cs]
-23.1 -25 84 -26  1035.5  -0.9  739  327  -23.5      17  равномерный
сухой снег
100% 
03 15.01.17 200 (Ю) 20000 м    10/0 средняя, верхняя 
[Ac trans|Cs]
-18.7 -22 75 -21  1034.3  -0.4  739  321           
06 15.01.17 200 (Ю) 20000 м    10/0 средняя, верхняя 
[Ac trans|Cs]
-16.8 -21 70 -19  1033.3  -0.8  738  319           
09 15.01.17 230 (ЮЗ) 20000 м    9/0 средняя, верхняя 
[Ac trans|Ci fib]
-15.4 -20.5 65 -18  1033.2  0.3  739  317           
12 15.01.17 230 (ЮЗ) 20000 м    4/0 верхняя 
[Ci fib]
-17.6 -21.8 70 -20  1034.6  0.7  739  320    -15       
15 15.01.17 230 (ЮЗ) 20000 м    ясно 
-18.9 -22.2 75 -22  1034.7  739  322           
18 15.01.17 тихо ()   20000 м    ясно 
-20.8 -24.1 75 -21  1035.5  0.4  740  324           
21 15.01.17 тихо ()   20000 м    ясно 
-23.2 -26.4 75 -23  1035.9  740  327           
00 16.01.17 тихо ()   20000 м    ясно 
-25.3 -26.6 89 -25  1036.7  0.3  740  330  -25.6      17  равномерный
сухой снег
100% 
03 16.01.17 тихо ()   20000 м    ясно 
-16.4 -20.6 70 -16  1035.1  0.2  740  319           
06 16.01.17 270 (З) 20000 м    ясно 
-11.6 -18.8 55 -14  1033.4  -0.9  739  313           
09 16.01.17 тихо ()   20000 м    ясно 
-16.7 -21.7 65 -17  1034.8  0.4  740  319           
12 16.01.17 тихо ()   20000 м    ясно 
-19.7 -23 75 -20  1035.3  740  323    -11.1       
15 16.01.17 тихо ()   20000 м    ясно 
-23.2 -25.7 80 -23  1034.7  -1.1  739  327           
Время (UTC), дата Ветер
(°,м/с) 
Видим.   Явления Облачность Т
(°С)
Тd
(°С)
f(%) Тe
(°С)
Pmin
(гПа)
dP
(гПа)
Po
(мм)
O2
(г/м3)
Тmin Tmax R s Состояние
почвы

Для получения пояснительной информации подведите курсор к названию столбца.

ПОГОДА в Магдагачи - архив

Всё, что Вы хотите узнать о погоде в Магдагачи - удобно и подробно!

Выберите нужную дату (начиная с 1 января 2015* года) и нажмите кнопку "Найти".
Будут отображены архивные сводки погоды по пункту Магдагачи, начиная с указанной даты.


Отображать данные в формате CSV (для использования в таблицах Excel)


Внимание! Наш архив погоды предназначен исключительно для личного некоммерческого использования в познавательных целях. Если Вам необходимы официальные справки о состоянии погоды (для производственных, юридических, коммерческих и т.п. целей), обращайтесь в органы Росгидромета.

*Примечание: данная дата относится к архиву по метеостанциям СССР (Россия, СНГ, Балтия).
Архив по метеостанциям Зарубежной Европы и Азии (кроме Китая) хранится 10 дней, по другим регионам земного шара (Китай, Африка, Америка, Австралия, Океания) - 1 день.

Магдагачи - район местоположения метеостанции


Название, широта, долгота, высота метеостанции:
Магдагачи 53.5°ш. 125.8°д. 370 м над ур. моря [Российская Федерация]

Дополнительная информация

В oтличие oт бoльшинства пoгoдных сайтoв мы публикуем пoдрoбную метеoинфoрмацию в детальнoм прoфессиoнальнoм фoрмате.

Характеристики температуры и влажнoсти вoздуха измеряются на высoте 2 м в тени вдали oт зданий и деревьев.
Скoрoсть ветра измеряется на высoте 10 м (на урoвне рoста челoвека скoрoсть ветра ниже в 1.5-2 раза). Если метеoстанция нахoдится в гoрoде или в лесу, тo скoрoсть ветра занижена на 2-4 м/с пo сравнению с oткрытым местoм. Скoрoсть ветра над акватoриями крупных рек и oзёр, а также на вершинах хoлмoв на 2-5 м/с выше, чем в oбычных услoвиях.
Атмoсфернoе давление в разных тoчках местнoсти мoжет значительнo oтличаться oт давления на метеoстанции, в зависимoсти oт услoвий рельефа (при пoдъёме на 10 м давление пoнижается примернo на 1 мм рт.ст.).